Sturgeon Bay, WI

2:30 AM CDT on October 15, 2019 (GMT -0500)
Door County Cherryland

Weather History for KSUE - August, 2019

Change the Weather History Date:

Thursday, August 29, 2019

  Actual Average Record
Temperature  
Mean Temperature 62 °F -  
Max Temperature 73 °F 76 °F 96 °F (1953)
Min Temperature 52 °F 56 °F 33 °F (1934)
Degree Days  
Heating Degree Days 2    
Growing Degree Days 12 (Base 50)    
Moisture  
Dew Point 56 °F    
Average Humidity 77    
Maximum Humidity 93    
Minimum Humidity 59    
Precipitation  
Precipitation 0.03 in - - ()
Sea Level Pressure  
Sea Level Pressure 29.80 in    
Wind  
Wind Speed 8 mph (WSW)    
Max Wind Speed 15 mph    
Max Gust Speed 26 mph    
Visibility 10 miles    
Events Rain    
Averages and records for this station are not official NWS values.
T = Trace of Precipitation, MM = Missing Value Source: NWS Daily Summary

Daily Weather History Graph

Daily Weather History Graph

Search for Another Location

Airport or City:

Astronomy

Aug. 29, 2019 Rise Set
Actual Time 6:08 AM CDT 7:32 PM CDT
Civil Twilight 5:37 AM CDT 8:02 PM CDT
Nautical Twilight 5:00 AM CDT 8:39 PM CDT
Astronomical Twilight 4:21 AM CDT 9:18 PM CDT
Moon 4:47 AM CDT (8/29) 7:32 PM CDT (8/29)
Length of Visible Light 14h 25m
Length of Day
13h 24m
Waning Crescent, 1% of the Moon is Illuminated
Aug 29
Waning Crescent
Aug 30
New
Sep 5
First Quarter
Sep 13
Full
Sep 21
Last Quarter

Hourly Weather History & Observations

Time (CDT) Temp. Dew Point Humidity Pressure Visibility Wind Dir Wind Speed Gust Speed Precip Events Conditions
12:56 AM 55.9 °F 52.0 °F 87% 29.89 in 10.0 mi WSW 4.6 mph - N/A   Clear
1:56 AM 57.0 °F 52.0 °F 83% 29.89 in 10.0 mi WSW 5.8 mph - N/A   Clear
2:56 AM 55.9 °F 52.0 °F 87% 29.89 in 10.0 mi WSW 5.8 mph - N/A   Clear
3:56 AM 55.9 °F 51.1 °F 84% 29.88 in 10.0 mi SW 5.8 mph - N/A   Clear
4:56 AM 55.0 °F 51.1 °F 86% 29.88 in 10.0 mi SW 4.6 mph - N/A   Clear
5:56 AM 52.0 °F 50.0 °F 93% 29.87 in 10.0 mi South 4.6 mph - N/A   Clear
6:56 AM 53.1 °F 50.0 °F 89% 29.86 in 10.0 mi SSW 8.1 mph - N/A   Clear
7:56 AM 57.0 °F 53.1 °F 87% 29.85 in 10.0 mi SSW 8.1 mph - N/A   Clear
8:56 AM 63.0 °F 55.0 °F 75% 29.82 in 10.0 mi South 11.5 mph - N/A   Clear
9:56 AM 66.9 °F 55.9 °F 68% 29.81 in 10.0 mi SSW 13.8 mph 19.6 mph N/A   Clear
10:56 AM 66.9 °F 55.9 °F 68% 29.78 in 10.0 mi South 11.5 mph - N/A   Clear
11:56 AM 63.0 °F 57.0 °F 81% 29.75 in 10.0 mi South 9.2 mph - 0.00 in Rain Light Rain
12:56 PM 61.0 °F 57.9 °F 90% 29.73 in 10.0 mi South 11.5 mph - 0.00 in Rain Light Rain
1:56 PM 66.0 °F 61.0 °F 84% 29.69 in 10.0 mi South 13.8 mph - 0.01 in   Scattered Clouds
2:56 PM 72.0 °F 63.0 °F 73% 29.69 in 10.0 mi WSW 12.7 mph 18.4 mph 0.01 in   Mostly Cloudy
3:17 PM 71.6 °F 62.6 °F 73% 29.70 in 10.0 mi West 15.0 mph 26.5 mph N/A   Mostly Cloudy
3:52 PM 71.6 °F 62.6 °F 73% 29.71 in 10.0 mi WNW 12.7 mph - N/A   Partly Cloudy
3:56 PM 72.0 °F 61.0 °F 68% 29.71 in 10.0 mi WNW 13.8 mph 20.7 mph N/A   Partly Cloudy
4:56 PM 73.0 °F 57.9 °F 59% 29.72 in 10.0 mi West 10.4 mph 18.4 mph N/A   Clear
5:56 PM 72.0 °F 57.9 °F 61% 29.74 in 10.0 mi West 11.5 mph - N/A   Clear
6:56 PM 69.1 °F 57.0 °F 65% 29.77 in 10.0 mi WNW 9.2 mph - 0.01 in   Partly Cloudy
7:56 PM 68.0 °F 55.0 °F 63% 29.79 in 10.0 mi WNW 10.4 mph - N/A   Clear
8:56 PM 64.9 °F 55.9 °F 73% 29.83 in 10.0 mi WNW 6.9 mph - N/A   Partly Cloudy
9:56 PM 62.1 °F 54.0 °F 75% 29.86 in 10.0 mi NNW 6.9 mph - N/A   Clear
10:56 PM 62.1 °F 53.1 °F 72% 29.89 in 10.0 mi NW 5.8 mph - N/A   Mostly Cloudy
11:56 PM 60.1 °F 54.0 °F 80% 29.92 in 10.0 mi West 4.6 mph - N/A   Clear